Location: Casone le Fosse
(44.6547°N, 12.1103°E)
Time: 04:25:19
(UTC+00:00)

ATLAS 5 CENTAUR R/B - Pass Details

Date: 29 October 2020
Orbit: 522 x 1136 km, 63.4° (Epoch: 30 November)

Event Time Altitude Azimuth Distance (km) Brightness Sun altitude
Rises 16:24:23 0° 284° (WNW) 2,790 6.1 -4.3°
Reaches altitude 10° 16:27:55 10° 316° (NW) 1,998 4.6 -4.9°
Maximum altitude 16:29:44 12° 341° (NNW) 1,918 4.2 -5.2°
Drops below altitude 10° 16:31:39 10° 4° (N) 2,132 4.1 -5.5°
Sets 16:35:45 0° 35° (NE) 3,217 4.8 -6.2°
